Istanbul, Turkey

2:21 PM +03 on November 24, 2017 (GMT +0300)
Ataturk

Weather History for LTBA - March, 2013

Change the Weather History Date:

Sunday, March 3, 2013

  Actual Average Record
Temperature  
Mean Temperature 46 °F -  
Max Temperature 50 °F 52 °F 68 °F (2014)
Min Temperature 41 °F 40 °F 33 °F (1997)
Degree Days  
Heating Degree Days 20    
Moisture  
Dew Point 34 °F    
Average Humidity 64    
Maximum Humidity 76    
Minimum Humidity 41    
Precipitation  
Precipitation 0.00 in - - ()
Sea Level Pressure  
Sea Level Pressure 30.02 in    
Wind  
Wind Speed 12 mph ()    
Max Wind Speed 20 mph    
Max Gust Speed 28 mph    
Visibility 6.2 miles    
Events      
Averages and records for this station are not official NWS values.
T = Trace of Precipitation, MM = Missing Value Source: Averaged Metar Reports

Daily Weather History Graph

Daily Weather History Graph

Search for Another Location

Airport or City:

Trip Planner

Search our weather history database for the weather conditions in past years. The results will help you decide how hot, cold, wet, or windy it might be!

Date:

Astronomy

Mar. 03, 2013 Rise Set
Actual Time 6:35 AM EET 5:58 PM EET
Civil Twilight 6:08 AM EET 6:25 PM EET
Nautical Twilight 5:36 AM EET 6:57 PM EET
Astronomical Twilight 5:04 AM EET 7:29 PM EET
Moon No Moon Rise 9:31 AM EET (3/3)
Length of Visible Light 12h 17m
Length of Day
11h 22m
Waning Gibbous, 67% of the Moon is Illuminated
Mar 3
Waning Gibbous
Mar 4
Last Quarter
Mar 11
New
Mar 19
First Quarter
Mar 27
Full

Hourly Weather History & Observations

Time (EET) Temp. Windchill Dew Point Humidity Pressure Visibility Wind Dir Wind Speed Gust Speed Precip Events Conditions
12:20 AM 44.6 °F 38.1 °F 37.4 °F 76% 30.12 in 6.2 mi NNE 13.8 mph - N/A   Mostly Cloudy
12:50 AM 44.6 °F 38.4 °F 37.4 °F 76% 30.12 in 6.2 mi NE 12.7 mph - N/A   Mostly Cloudy
1:20 AM 46.4 °F 41.1 °F 37.4 °F 71% 30.12 in 6.2 mi NE 11.5 mph - N/A   Scattered Clouds
1:50 AM 46.4 °F 40.7 °F 37.4 °F 71% 30.12 in 6.2 mi NE 12.7 mph - N/A   Scattered Clouds
2:00 AM 46 °F - 37 °F 62% 30.13 in 6 mi NE 12.7 mph - -   Partly Cloudy
2:20 AM 46.4 °F 41.5 °F 37.4 °F 71% 30.12 in 6.2 mi NE 10.4 mph - N/A   Scattered Clouds
2:50 AM 44.6 °F 38.8 °F 37.4 °F 76% 30.09 in 6.2 mi ENE 11.5 mph - N/A   Scattered Clouds
3:20 AM 44.6 °F 38.8 °F 37.4 °F 76% 30.09 in 6.2 mi NE 11.5 mph - N/A   Scattered Clouds
3:50 AM 44.6 °F 38.8 °F 37.4 °F 76% 30.09 in 6.2 mi NE 11.5 mph - N/A   Scattered Clouds
4:20 AM 44.6 °F 38.8 °F 37.4 °F 76% 30.06 in 6.2 mi NE 11.5 mph - N/A   Scattered Clouds
4:50 AM 44.6 °F 38.8 °F 37.4 °F 76% 30.06 in 6.2 mi ENE 11.5 mph - N/A   Scattered Clouds
5:20 AM 44.6 °F 38.4 °F 37.4 °F 76% 30.06 in 6.2 mi ENE 12.7 mph - N/A   Scattered Clouds
5:50 AM 44.6 °F 38.4 °F 37.4 °F 76% 30.06 in 6.2 mi ENE 12.7 mph - N/A   Scattered Clouds
6:20 AM 44.6 °F 39.2 °F 35.6 °F 71% 30.06 in 6.2 mi ENE 10.4 mph - N/A   Scattered Clouds
6:50 AM 44.6 °F 38.8 °F 35.6 °F 71% 30.06 in 6.2 mi NE 11.5 mph - N/A   Scattered Clouds
7:20 AM 44.6 °F 38.4 °F 35.6 °F 71% 30.06 in 6.2 mi ENE 12.7 mph - N/A   Scattered Clouds
7:50 AM 44.6 °F 37.8 °F 35.6 °F 71% 30.06 in 6.2 mi ENE 15.0 mph - N/A   Scattered Clouds
8:00 AM 45 °F - 35 °F 59% 30.09 in 6 mi ENE 15.0 mph - -   Partly Cloudy
8:20 AM 46.4 °F 40.4 °F 35.6 °F 66% 30.06 in 6.2 mi ENE 13.8 mph - N/A   Scattered Clouds
8:50 AM 46.4 °F 40.1 °F 33.8 °F 62% 30.06 in 6.2 mi ENE 15.0 mph - N/A   Mostly Cloudy
9:20 AM 46.4 °F 39.8 °F 33.8 °F 62% 30.06 in 6.2 mi NE 16.1 mph - N/A   Mostly Cloudy
9:50 AM 46.4 °F 39.8 °F 33.8 °F 62% 30.06 in 6.2 mi NE 16.1 mph - N/A   Mostly Cloudy
10:20 AM 46.4 °F 40.7 °F 35.6 °F 66% 30.06 in 6.2 mi NE 12.7 mph - N/A   Mostly Cloudy
10:50 AM 48.2 °F - 33.8 °F 58% 30.04 in 6.2 mi NE 15.0 mph - N/A   Mostly Cloudy
11:20 AM 48.2 °F - 33.8 °F 58% 30.04 in 6.2 mi NE 12.7 mph - N/A   Mostly Cloudy
11:50 AM 48.2 °F - 33.8 °F 58% 30.04 in 6.2 mi NE 16.1 mph - N/A   Mostly Cloudy
12:20 PM 48.2 °F - 32.0 °F 54% 30.01 in 6.2 mi NE 16.1 mph - N/A   Mostly Cloudy
12:50 PM 50.0 °F - 32.0 °F 50% 30.01 in 6.2 mi NE 13.8 mph - N/A   Mostly Cloudy
1:20 PM 50.0 °F - 33.8 °F 54% 29.98 in 6.2 mi NE 13.8 mph - N/A   Mostly Cloudy
1:50 PM 50.0 °F - 33.8 °F 54% 29.98 in 6.2 mi NNE 16.1 mph - N/A   Mostly Cloudy
2:00 PM 50 °F - 33 °F 41% 29.99 in 6 mi NNE 16.1 mph - -   Partly Cloudy
2:20 PM 48.2 °F - 33.8 °F 58% 29.98 in 6.2 mi NE 16.1 mph - N/A   Mostly Cloudy
2:50 PM 48.2 °F - 33.8 °F 58% 29.95 in 6.2 mi NNE 16.1 mph - N/A   Mostly Cloudy
3:20 PM 48.2 °F - 33.8 °F 58% 29.95 in 6.2 mi NNE 17.3 mph - N/A   Mostly Cloudy
3:50 PM 48.2 °F - 33.8 °F 58% 29.95 in 6.2 mi NNE 19.6 mph - N/A   Mostly Cloudy
4:20 PM 48.2 °F - 33.8 °F 58% 29.95 in 6.2 mi NNE 16.1 mph - N/A   Scattered Clouds
4:50 PM 46.4 °F 39.2 °F 33.8 °F 62% 29.92 in 6.2 mi NNE 18.4 mph - N/A   Scattered Clouds
5:20 PM 46.4 °F 39.8 °F 33.8 °F 62% 29.92 in 6.2 mi NNE 16.1 mph 27.6 mph N/A   Scattered Clouds
5:50 PM 44.6 °F 37.4 °F 32.0 °F 61% 29.92 in 6.2 mi NNE 16.1 mph - N/A   Scattered Clouds
6:20 PM 44.6 °F 37.8 °F 32.0 °F 61% 29.95 in 6.2 mi NNE 15.0 mph - N/A   Scattered Clouds
6:50 PM 44.6 °F 38.4 °F 32.0 °F 61% 29.95 in 6.2 mi NE 12.7 mph - N/A   Scattered Clouds
7:20 PM 44.6 °F 37.8 °F 32.0 °F 61% 29.95 in - NE 15.0 mph - N/A   Clear
7:50 PM 44.6 °F 38.8 °F 32.0 °F 61% 29.95 in - NE 11.5 mph - N/A   Clear
8:00 PM 44 °F - 32 °F 51% 29.96 in 6 mi NE 11.5 mph - -  
8:20 PM 42.8 °F 35.8 °F 32.0 °F 66% 29.95 in - NE 13.8 mph - N/A   Clear
8:50 PM 42.8 °F 36.2 °F 32.0 °F 66% 29.95 in - NE 12.7 mph - N/A   Clear
9:20 PM 42.8 °F 37.0 °F 32.0 °F 66% 29.95 in - NE 10.4 mph - N/A   Clear
9:50 PM 42.8 °F 36.6 °F 32.0 °F 66% 29.95 in - NE 11.5 mph - N/A   Clear
10:20 PM 42.8 °F 37.5 °F 32.0 °F 66% 29.95 in - NE 9.2 mph - N/A   Clear
10:50 PM 42.8 °F 37.5 °F 32.0 °F 66% 29.95 in - NNE 9.2 mph - N/A   Clear
11:20 PM 41.0 °F 35.8 °F 32.0 °F 70% 29.95 in - NNE 8.1 mph - N/A   Clear
11:50 PM 41.0 °F 35.8 °F 30.2 °F 65% 29.98 in - NNE 8.1 mph - N/A   Clear